Find Starlink 38231

NORAD ID: 100551 Int'l Des: 2026-200 Owner: SPXS Country: US Constellation: starlink operational

当前视图

正在加载3D地球...

About Starlink 38231

Starlink 38231 (NORAD 100551) is a starlink constellation satellite launched Sep 2, 2026 by SPXS of US. with a mass of 575.00 kg.

即将过境

Passes for default location (London). Set your location on the main map for personalized predictions.

高度历史

Loading altitude history...

两行轨道根数

1 A0551U 26200T 26263.94097698 .00145470 00000-0 85713-3 0 9990
2 A0551 69.9993 134.1084 0004366 288.1247 71.9477 15.77605027 2951
Epoch: Sep 20, 2026 • Age: 7 hours

当前状态

高度 344.3 km
远地点 / 近地点 N/A
速度 7.70 km/s
星下点 37.97°N, 142.07°W
发射日期 Sep 2, 2026
运行时间 18 days
类型 internet

技术详情

分类 Payload
质量 575.00 kg
干质量 530.00 kg
长度 0.30 m
跨度 29.00 m
形状 ? Box + pan
制造商 SPXS
平台类型 Starlink V2MO
阶段状态 In Orbit
所有者/国家 SPXS/US

Most Searched